FLOCK 1C 4

导读 | 星芒AI

FLOCK 1C 4 是由 Planet Labs 运营的 Dove 卫星之一,属于其 Flock 1C 系列。该卫星属于小型地球观测卫星,主要用于高分辨率光学成像,支持每天对全球范围进行多次成像。Flock 1C 4 于 2016 年发射,运行在低地球轨道,为农业、环境监测、灾害响应等领域提供数据支持。Planet Labs 通过其卫星星座提供快速、频繁的地球影像服务,是目前全球最大的商业地球成像公司之一。

基本信息
目录编号:
40031
目录名称:
FLOCK 1C 4
国际标识:
2014-033X
轨道中心:
EARTH
卫星名称:
FLOCK 1C 4
卫星全名:
--
卫星状态:
已陨落 最后检测时间 2025-11-25
发射日期:
2014-06-19 UTC
国别 :
美国 (US)
星等 :
--
轨道信息
数据来源 国际轨道数据
星历时间: 2025-11-25T05:57:37+0800
轨道信息已过期21天
半长轴: 6542.055km
偏心率: 0.000922
轨道倾角: 98.051°
近地点辐角 238.716°
升交点赤经 359.799°
平近点角 121.323°
近地点: 157.888km
远地点: 169.952km
周期: 87.767分钟
每日圈数: 16.407089
详细信息
使用方式:
暂无